Location: *
(46.3500°N, 10.9000°E)
Time: 13:29:21
(UTC+00:00)

Cosmos 2369 - Pass Details

Date: 09 April 2020
Orbit: 840 x 855 km, 71.0° (Epoch: 02 June)

Event Time Altitude Azimuth Distance (km) Brightness Sun altitude
Rises 21:07:22 0° 331° (NNW) 3,404 8.1 -28.4°
Reaches altitude 10° 21:09:50 10° 330° (NNW) 2,466 7.1 -28.6°
Enters shadow 21:15:10 71° 273° (W) 890 3.8 -29.2°
